Terminal Aerodrome Forecast
Issued by NWS Denver/Boulder, CO

Home | Current Version | Previous Version | Text Only | Print | Product List | Glossary On
Versions: 1 2 3 4 5 6 7 8 9 10 11 12 13 14 15 16 17 18 19 20 21 22 23 24 25 26 27 28 29 30 31 32 33 34 35 36 37 38 39 40 41 42 43 44 45 46 47 48 49 50
391
FTUS45 KBOU 112221 AAC
TAFDEN
TAF AMD
KDEN 112221Z 1122/1224 10013KT P6SM FEW110 SCT220
     FM120300 19012KT P6SM FEW140 SCT220
     FM121600 12010KT P6SM SCT220
     FM122000 05007KT P6SM SCT220=

USA.gov is the U.S. government's official web portal to all federal, state and local government web resources and services.